Wind_Speed
15 16 16 16 17 18 19 19 20 19 21 22 24 24 24 25 27 28 29 30 31 32 33 34 35 36 37 38 39 40 40 41 42 43 43 44 44 44 44 44 44 44 43 43
18 19 18 18 19 20 21 22 23 23 23 25 26 26 27 28 30 31 32 33 33 35 36 37 38 38 39 40 40 41 41 42 42 43 44 44 44 44 44 44 44 44 43 43
21 22 22 21 21 23 23 24 25 25 25 27 28 29 30 31 33 34 35 35 36 37 38 38 40 41 41 42 43 43 43 43 43 44 44 44 44 44 44 44 43 43 42 42
24 24 24 23 24 25 26 26 27 28 29 29 30 31 33 34 35 36 37 38 39 40 40 41 42 42 42 43 43 43 44 44 44 44 45 45 45 44 44 44 43 43 43 43
28 29 28 27 27 27 28 29 29 30 32 33 34 35 36 36 37 38 38 39 40 41 42 43 43 44 44 45 45 45 45 45 46 46 46 45 45 45 45 44 44 44 43 43
31 31 31 30 30 31 32 32 33 34 35 36 37 37 37 38 39 39 40 41 42 43 44 44 45 46 46 46 46 46 46 46 46 46 46 45 45 45 45 44 44 44 43 44
32 33 33 33 34 35 35 36 36 37 38 39 39 40 39 40 40 41 42 43 43 44 45 46 46 47 47 47 47 47 47 47 47 47 46 46 45 45 45 44 44 44 43 43
34 35 35 36 37 37 38 39 39 40 40 41 41 41 42 42 42 43 44 44 45 46 46 47 48 48 48 48 48 48 48 47 47 47 46 45 44 44 44 44 43 43 42 42
37 37 37 38 39 39 40 41 41 42 42 43 43 43 43 44 44 45 46 47 47 47 48 48 48 49 49 48 48 48 47 47 47 46 45 45 44 44 43 43 42 42 42 42
38 38 39 40 41 41 42 43 43 43 44 45 45 45 45 45 46 46 48 48 49 49 49 49 49 49 49 49 48 48 47 46 46 45 44 43 43 43 43 42 41 41 41 41
41 41 42 42 43 44 45 45 45 46 46 46 46 46 47 48 48 49 50 50 50 50 50 50 49 49 49 48 48 47 46 45 45 44 43 43 42 42 42 42 41 41 41 41
44 43 45 44 45 45 46 46 47 47 47 47 48 49 49 50 51 51 51 51 51 51 50 49 49 48 47 47 47 46 45 44 44 43 43 42 42 41 41 41 41 41 41 40
46 46 47 47 47 47 48 48 48 48 49 49 50 51 51 52 52 52 52 51 51 50 49 48 48 47 47 46 46 45 44 43 42 42 42 42 41 41 41 40 40 40 40 39
48 48 48 48 49 49 49 49 50 50 50 51 51 52 52 52 52 51 50 50 49 49 48 47 47 46 46 45 44 43 42 42 42 41 42 41 41 41 40 40 39 39 39 38
48 49 49 49 49 50 50 51 51 51 51 51 52 52 52 51 50 49 49 49 48 48 48 47 47 46 46 45 44 43 43 42 42 42 42 41 41 41 40 39 39 39 38 38
49 50 50 50 50 51 51 51 52 51 51 51 51 51 50 49 49 48 48 48 48 47 47 48 47 47 46 46 45 44 44 44 44 43 42 42 41 41 40 40 39 39 38 38
50 50 51 51 51 51 51 51 51 50 50 50 50 49 49 49 48 48 48 48 48 48 48 48 48 47 47 47 46 45 44 44 44 44 43 42 42 41 40 40 39 38 38 38
50 50 51 51 50 50 50 50 50 50 49 49 49 48 49 49 49 49 48 49 49 48 48 49 49 48 47 47 47 46 45 44 44 43 43 42 41 40 40 39 38 37 37 37
50 50 50 49 49 49 49 49 49 48 48 49 49 49 49 49 49 49 48 48 48 48 48 48 48 48 47 47 46 45 45 44 43 42 42 41 40 39 39 38 37 36 36 36
49 49 49 49 49 48 48 48 48 48 48 49 50 50 49 49 49 49 49 48 48 48 48 48 48 48 48 47 46 45 44 43 42 41 41 40 39 38 37 36 35 35 34 34
49 49 49 49 49 48 49 49 50 50 49 50 50 50 50 49 49 49 50 49 48 49 49 48 47 46 46 45 44 43 42 42 41 40 39 38 37 35 35 34 33 33 32 31
49 49 49 50 50 50 50 50 51 51 51 51 51 52 52 51 51 50 50 50 49 48 47 46 45 44 43 42 42 41 40 39 39 37 36 35 34 33 32 31 30 30 29 28
50 50 50 50 51 51 52 52 53 53 53 53 53 53 53 53 52 51 50 48 47 45 44 43 42 41 41 40 39 39 38 37 36 35 34 32 31 30 29 29 27 27 26 26
51 51 52 52 53 53 53 53 54 54 54 54 53 53 52 51 50 48 48 45 43 42 41 40 39 39 38 37 37 36 35 34 33 32 30 29 28 28 27 26 25 25 25 25
52 52 52 53 53 53 53 53 54 53 53 52 51 50 49 49 47 44 42 41 40 40 39 38 37 37 36 35 34 33 32 31 30 29 27 27 26 26 25 24 24 23 23 24
51 51 51 52 52 52 51 51 50 50 50 49 47 46 45 44 43 41 40 39 38 37 37 36 35 34 32 32 31 30 29 28 27 26 25 25 25 24 23 23 22 22 23 23
50 50 50 49 49 49 49 49 48 47 46 45 44 42 41 40 40 39 38 37 36 36 35 33 32 31 30 29 28 27 27 26 25 25 24 23 23 22 22 22 22 22 22 22
Wind_Direction
289 288 287 285 285 286 287 288 287 287 288 288 289 290 289 289 289 289 290 290 290 290 291 292 293 293 294 293 293 293 293 292 292 291 291 292 292 291 291 291 291 291 291 291
287 288 287 287 287 286 285 286 286 286 287 287 290 290 290 289 289 290 291 291 291 291 291 292 293 293 293 293 294 294 294 293 293 293 292 292 292 292 291 291 291 291 291 291
287 287 287 287 286 286 287 286 286 287 287 287 289 290 290 290 291 291 292 291 291 291 291 292 293 293 293 293 293 293 293 293 293 293 293 293 292 292 291 290 290 290 290 291
288 286 288 290 288 287 287 288 288 288 288 288 289 290 291 293 293 293 293 293 293 293 293 293 294 294 294 294 293 293 293 293 293 293 293 292 292 291 291 291 290 290 290 291
290 288 288 288 289 288 289 290 290 289 290 291 292 292 294 294 294 294 294 294 294 294 294 294 295 294 294 294 293 293 293 293 292 293 293 292 292 291 290 290 290 291 290 291
290 289 289 290 290 290 291 291 290 291 292 292 293 294 295 295 296 296 295 295 295 295 295 295 294 294 294 294 294 293 293 293 292 292 292 292 291 291 290 290 290 290 290 290
290 288 290 290 291 291 292 293 292 292 293 294 295 295 296 296 297 297 296 296 296 295 295 295 295 295 295 294 294 294 293 293 292 292 292 291 291 291 290 290 290 290 289 289
288 288 291 291 291 291 292 292 292 293 294 295 295 295 296 296 297 297 297 296 296 296 296 296 296 296 295 295 294 293 292 292 292 292 291 291 291 291 290 290 290 290 290 290
288 289 290 290 290 291 292 293 294 294 295 295 295 295 296 296 297 297 297 297 297 296 296 296 296 296 295 295 294 294 293 292 292 292 291 291 290 290 290 290 290 290 290 289
288 289 289 289 290 291 293 294 295 295 295 295 295 295 296 296 297 297 297 296 296 296 296 296 296 295 295 295 294 294 293 292 292 291 291 291 291 290 290 290 289 290 290 290
288 288 287 288 289 291 293 294 295 296 295 295 296 296 296 296 296 297 297 296 296 296 296 296 296 295 295 295 294 294 293 292 291 291 291 291 291 291 290 290 290 290 291 291
287 287 287 288 289 291 292 294 294 295 294 295 295 295 295 295 296 296 296 296 296 296 296 296 295 295 295 295 295 295 294 292 291 291 291 291 291 290 290 290 290 291 291 290
286 287 288 289 290 291 292 293 294 294 294 294 294 294 294 294 295 295 295 295 295 295 295 295 295 295 295 295 295 295 294 293 292 291 291 291 290 290 291 290 290 290 290 290
286 287 288 289 290 291 292 292 293 293 294 294 294 293 293 293 294 294 294 294 295 295 295 295 296 296 296 295 295 295 295 294 293 292 291 290 290 291 290 290 290 290 290 289
285 286 288 289 290 290 291 291 292 293 293 294 294 293 292 292 292 293 293 293 294 294 295 295 295 295 295 295 295 294 294 294 294 293 292 291 290 290 290 289 289 289 289 289
284 286 287 289 289 290 291 291 292 293 293 293 293 293 292 291 291 292 293 293 294 294 294 294 294 294 294 294 294 293 293 293 293 293 293 292 291 290 290 289 289 288 288 288
284 286 287 288 289 290 291 291 292 292 292 292 292 292 292 291 290 291 291 292 293 293 294 294 294 293 293 293 293 293 292 292 292 293 293 292 291 290 290 289 288 287 287 288
285 286 287 288 289 289 290 290 291 292 292 292 291 292 291 290 290 290 291 292 292 293 294 294 293 293 293 293 293 293 292 292 292 292 292 291 290 290 289 289 288 287 287 287
286 287 288 288 289 289 290 291 291 291 292 292 292 292 292 291 291 291 292 293 294 293 293 293 293 293 293 292 292 292 292 292 292 291 291 290 290 289 289 287 287 287 287 287
287 288 288 289 289 289 290 290 290 291 291 292 292 292 292 292 291 291 292 294 294 294 293 293 293 293 292 292 292 292 292 292 291 291 290 290 289 288 287 286 286 286 287 286
287 287 288 288 289 289 290 290 290 291 291 291 291 292 292 292 292 292 292 293 294 293 293 293 294 294 293 293 292 292 292 292 291 291 290 290 289 288 287 285 285 285 285 286
286 287 288 288 289 289 289 289 289 289 290 290 291 291 292 292 292 292 292 293 293 293 293 293 293 293 293 293 293 292 292 292 291 290 289 288 287 286 286 285 284 284 285 286
287 287 288 288 288 288 288 289 288 288 289 290 291 291 292 292 292 293 292 292 292 292 292 293 293 293 293 294 293 292 292 292 291 290 288 287 285 285 286 285 284 284 285 286
287 287 287 288 288 288 288 288 288 288 289 290 291 292 292 293 293 293 292 292 291 291 292 293 293 293 294 294 293 293 293 292 291 290 288 286 284 284 284 284 283 284 285 286
287 288 288 289 289 289 289 289 288 288 289 290 291 292 292 292 292 292 291 291 291 292 292 293 293 293 293 294 294 293 293 292 292 290 287 286 284 283 283 283 283 283 285 286
287 288 288 289 290 290 289 289 289 290 290 290 290 291 291 290 290 291 291 291 291 292 293 293 292 291 292 293 294 293 292 292 291 289 288 286 285 283 282 282 282 283 285 287
287 287 288 289 289 289 289 289 290 291 291 291 290 290 290 289 289 289 290 290 291 293 292 291 290 290 291 292 292 292 291 291 290 289 288 286 285 283 282 282 282 283 285 286
Height
5716 5715 5714 5713 5713 5711 5710 5709 5708 5708 5706 5705 5703 5702 5701 5699 5697 5696 5694 5692 5689 5687 5685 5682 5680 5677 5674 5671 5668 5665 5662 5659 5655 5652 5648 5645 5642 5639 5636 5632 5629 5625 5622 5618
5713 5711 5709 5709 5708 5707 5705 5704 5703 5702 5701 5699 5697 5696 5694 5692 5690 5688 5686 5684 5681 5679 5676 5673 5670 5668 5664 5661 5658 5655 5651 5648 5644 5641 5637 5634 5630 5627 5624 5620 5617 5613 5610 5607
5708 5706 5705 5705 5704 5701 5700 5698 5697 5696 5695 5692 5691 5688 5686 5684 5682 5680 5677 5675 5672 5669 5666 5663 5660 5657 5654 5651 5647 5644 5640 5637 5633 5629 5626 5622 5619 5615 5612 5608 5604 5601 5598 5595
5701 5701 5699 5701 5697 5695 5693 5692 5690 5688 5687 5685 5683 5680 5678 5676 5673 5670 5668 5665 5662 5659 5656 5653 5650 5646 5643 5639 5636 5632 5629 5625 5621 5617 5614 5610 5606 5603 5599 5596 5593 5589 5586 5583
5695 5693 5692 5693 5691 5688 5686 5685 5683 5681 5679 5677 5674 5672 5670 5667 5664 5661 5658 5655 5652 5648 5645 5642 5639 5635 5631 5628 5624 5620 5616 5612 5608 5605 5601 5597 5594 5590 5587 5584 5580 5577 5574 5570
5687 5685 5685 5686 5683 5680 5679 5677 5675 5672 5670 5668 5665 5663 5661 5657 5654 5651 5647 5644 5641 5638 5634 5631 5627 5623 5619 5615 5611 5607 5603 5599 5595 5592 5588 5585 5581 5578 5574 5571 5568 5565 5561 5558
5679 5677 5677 5676 5674 5672 5671 5669 5666 5663 5661 5658 5656 5653 5651 5647 5643 5640 5636 5633 5629 5626 5622 5618 5614 5610 5606 5602 5598 5594 5590 5587 5583 5579 5575 5572 5568 5565 5561 5558 5555 5552 5549 5546
5671 5669 5671 5667 5664 5663 5661 5658 5656 5653 5651 5648 5645 5642 5639 5636 5632 5629 5625 5621 5617 5613 5609 5605 5600 5597 5593 5589 5585 5581 5577 5573 5569 5566 5562 5558 5555 5552 5549 5545 5542 5540 5536 5534
5663 5663 5660 5656 5654 5652 5649 5647 5645 5643 5640 5637 5634 5631 5627 5624 5620 5616 5612 5608 5604 5600 5596 5592 5587 5583 5579 5575 5571 5567 5564 5560 5556 5553 5549 5546 5543 5539 5536 5533 5530 5527 5524 5521
5653 5652 5649 5646 5643 5641 5638 5636 5634 5631 5628 5625 5622 5618 5615 5611 5608 5604 5600 5595 5591 5587 5583 5578 5574 5569 5565 5561 5557 5554 5550 5547 5543 5540 5537 5533 5530 5527 5524 5521 5518 5515 5512 5509
5642 5641 5637 5636 5632 5630 5627 5624 5621 5619 5615 5612 5608 5605 5602 5598 5594 5590 5586 5582 5577 5573 5569 5565 5560 5556 5551 5547 5543 5540 5537 5533 5530 5527 5524 5521 5518 5514 5511 5508 5505 5503 5500 5497
5630 5628 5625 5624 5621 5618 5615 5612 5609 5606 5603 5599 5595 5592 5588 5584 5581 5576 5572 5568 5564 5559 5555 5551 5547 5542 5538 5534 5530 5526 5523 5520 5517 5514 5511 5508 5505 5503 5499 5496 5493 5490 5487 5485
5616 5615 5612 5610 5608 5605 5602 5599 5596 5592 5589 5586 5582 5578 5574 5570 5566 5562 5558 5554 5550 5546 5542 5537 5533 5529 5525 5521 5517 5513 5510 5507 5504 5501 5498 5495 5493 5490 5487 5485 5481 5478 5475 5472
5603 5601 5599 5597 5594 5591 5588 5585 5582 5579 5575 5571 5567 5564 5560 5556 5552 5548 5544 5540 5536 5532 5528 5524 5520 5516 5512 5508 5504 5501 5498 5494 5491 5489 5486 5483 5480 5477 5474 5472 5470 5466 5463 5461
5590 5587 5585 5583 5580 5578 5574 5571 5568 5564 5561 5557 5553 5549 5545 5542 5538 5534 5530 5526 5522 5519 5515 5511 5507 5503 5499 5495 5492 5488 5485 5482 5479 5476 5473 5470 5467 5465 5462 5459 5457 5455 5452 5449
5576 5573 5570 5568 5566 5563 5560 5557 5553 5550 5546 5542 5539 5535 5531 5527 5524 5520 5516 5512 5509 5505 5501 5497 5494 5490 5486 5482 5479 5475 5472 5469 5466 5463 5460 5458 5455 5452 5450 5447 5445 5443 5441 5438
5561 5559 5556 5554 5551 5548 5545 5542 5538 5535 5531 5528 5524 5520 5516 5513 5510 5506 5503 5499 5495 5491 5487 5483 5479 5476 5472 5469 5465 5462 5459 5456 5453 5450 5447 5444 5442 5439 5437 5434 5432 5430 5428 5426
5546 5544 5541 5539 5536 5533 5530 5527 5523 5520 5516 5513 5509 5506 5502 5498 5495 5492 5489 5485 5482 5478 5474 5469 5465 5462 5458 5455 5451 5448 5445 5442 5439 5437 5434 5431 5429 5427 5424 5422 5420 5418 5416 5414
5531 5529 5527 5524 5521 5518 5515 5512 5508 5505 5501 5498 5494 5491 5488 5484 5481 5477 5474 5471 5467 5464 5460 5455 5451 5448 5444 5441 5437 5434 5432 5429 5426 5423 5420 5418 5416 5414 5412 5410 5408 5406 5404 5402
5516 5514 5512 5509 5506 5503 5500 5497 5494 5491 5487 5483 5480 5476 5473 5470 5466 5463 5459 5457 5453 5448 5445 5441 5438 5434 5430 5427 5424 5421 5418 5415 5412 5410 5407 5405 5403 5401 5399 5397 5396 5394 5393 5391
5501 5499 5496 5494 5491 5489 5485 5482 5479 5476 5473 5469 5465 5461 5458 5455 5452 5448 5445 5442 5440 5434 5430 5427 5423 5419 5416 5413 5410 5407 5404 5402 5399 5397 5395 5393 5391 5389 5387 5386 5384 5383 5382 5380
5486 5484 5481 5479 5476 5474 5471 5467 5464 5461 5457 5454 5450 5446 5443 5440 5437 5433 5430 5426 5423 5420 5416 5413 5409 5405 5402 5399 5397 5394 5391 5389 5386 5384 5382 5380 5379 5378 5376 5375 5374 5373 5372 5371
5471 5469 5466 5464 5461 5458 5455 5452 5448 5444 5441 5438 5435 5431 5427 5424 5420 5417 5415 5413 5408 5405 5402 5399 5396 5392 5389 5387 5384 5382 5379 5377 5374 5372 5370 5369 5368 5367 5366 5365 5364 5363 5362 5361
5456 5453 5451 5448 5444 5441 5439 5436 5432 5428 5425 5422 5419 5415 5411 5408 5405 5402 5398 5397 5394 5391 5389 5386 5383 5380 5377 5375 5372 5370 5368 5365 5363 5361 5360 5359 5358 5357 5356 5356 5355 5354 5354 5353
5440 5437 5434 5431 5428 5425 5422 5418 5415 5413 5409 5407 5404 5401 5397 5393 5390 5388 5386 5383 5381 5378 5376 5374 5371 5368 5366 5363 5361 5359 5357 5355 5353 5352 5350 5350 5349 5348 5348 5347 5347 5346 5345 5344
5424 5421 5418 5415 5412 5408 5405 5402 5399 5397 5393 5391 5389 5387 5383 5380 5377 5375 5373 5371 5369 5367 5364 5362 5360 5358 5355 5353 5351 5349 5348 5346 5344 5343 5342 5341 5340 5340 5339 5339 5339 5338 5337 5336
5409 5406 5403 5400 5397 5393 5389 5386 5384 5382 5379 5376 5374 5373 5370 5367 5365 5363 5361 5359 5357 5355 5353 5351 5349 5348 5346 5344 5342 5341 5339 5338 5336 5335 5334 5333 5333 5332 5332 5331 5331 5330 5330 5329